Location: Brno
(49.2000°N, 16.6330°E)
Time: 19:02:09
(UTC+02:00)

Transit 4A - Pass Details

Date: 30 July 2021
Orbit: 871 x 974 km, 66.8° (Epoch: 16 September)

Event Time Altitude Azimuth Distance (km) Brightness Sun altitude
Rises 09:10:54 0° 324° (NW) 3,472 10.5 35.1°
Reaches altitude 10° 09:13:24 10° 328° (NNW) 2,535 9.9 35.5°
Maximum altitude 09:19:13 63° 50° (NE) 984 9.0 36.4°
Drops below altitude 10° 09:25:07 10° 131° (SE) 2,569 11.3 37.3°
Sets 09:27:40 0° 135° (SE) 3,522 11.7 37.7°
